Notices

What's New in latest Release from April 7th, 2021:

- Updated Glossary, including Speed of Maximum Gust, and Total Hourly Precipitation

- Updated national and regional climate services offices contacts and prices information

- Addition of station inventory lists for 1981-2010, 1971-2000, and 1961-1990 Normals.

Please note that as of June 10, 2021 UTC dates are available for all years 2004-present, and DBA is working on populating the remaining years (2003 to 1953).

If you haven't already, please take our survey and provide feedback about our website: https://eccc.sondage-survey.ca/f/LanguageSelection.aspx?s=442ca660-fcf1-47c0-95a9-59707d6fd709

Hourly Data Report for April 11, 2020

MIRAMICHI RCS
NEW BRUNSWICK
Current Station Operator: ECCC - MSC

47°00'34.000" N
65°27'54.000" W
33.00 m
8100989
71744
ACQ

Download Data

Hourly Data (April 2020)
Hourly Data Report for April 11, 2020
TIME
LST
Temp Definition
°C
Dew Point Definition
°C
Rel Hum Definition
%
Precip. Amount Definition
mm

Wind Dir Definition
10's deg

Wind Spd Definition
km/h
Visibility Definition
km
Stn Press Definition
kPa
Hmdx Definition


Wind Chill Definition


Weather Definition


00:00 -1.0 -4.3 78 LegendMM 30 15   97.70   -6 LegendNANA
01:00 -0.9 -4.5 76 LegendMM 29 17   97.80   -6 LegendNANA
02:00 -0.9 -4.1 79 LegendMM 29 17   97.88   -6 LegendNANA
03:00 -0.7 -4.1 78 LegendMM 29 18   97.98   -6 LegendNANA
04:00 -1.3 -4.4 80 LegendMM 29 12   98.10   -5 LegendNANA
05:00 -1.3 -4.4 80 LegendMM 28 13   98.23   -6 LegendNANA
06:00 -0.9 -3.9 80 LegendMM 28 19   98.36   -6 LegendNANA
07:00 0.2 -3.4 77 LegendMM 28 19   98.51     LegendNANA
08:00 1.7 -3.2 70 LegendMM 29 20   98.61     LegendNANA
09:00 2.7 -3.4 64 LegendMM 30 22   98.70     LegendNANA
10:00 2.9 -4.3 59 LegendMM 30 23   98.80     LegendNANA
11:00 3.6 -3.8 59 LegendMM 29 23   98.87     LegendNANA
12:00 4.1 -4.1 55 LegendMM 30 19   98.94     LegendNANA
13:00 4.8 -4.6 50 LegendMM 29 26   98.98     LegendNANA
14:00 5.1 -4.4 50 LegendMM 29 21   99.08     LegendNANA
15:00 5.4 -5.2 47 LegendMM 29 26   99.16     LegendNANA
16:00 5.0 -5.2 48 LegendMM 27 24   99.27     LegendNANA
17:00 4.6 -5.1 49 LegendMM 28 16   99.38     LegendNANA
18:00 5.2 -5.9 45 LegendMM 28 19   99.48     LegendNANA
19:00 4.2 -5.9 48 LegendMM 28 13   99.58     LegendNANA
20:00 3.2 -6.1 50 LegendMM 27 11   99.71     LegendNANA
21:00 1.7 -5.8 57 LegendMM 26 11   99.84     LegendNANA
22:00 0.6 -5.5 63 LegendMM 26 10   99.93     LegendNANA
23:00 0.2 -5.8 64 LegendMM 25 12   100.02     LegendNANA

Notes on Data Quality.

Legend

  • E = Estimated
  • M = Missing
  • NA = Not Available*
  • [empty] = Indicates an unobserved value
Date modified: